Year,Month,Day,Hour,Minute,Value (Times are PST for insolation in W/m^2)
2007,09,03,00,00,0.00
2007,09,03,00,01,0.00
2007,09,03,00,02,0.00
2007,09,03,00,03,0.00
2007,09,03,00,04,0.00
2007,09,03,00,05,0.00
2007,09,03,00,06,0.00
2007,09,03,00,07,0.00
2007,09,03,00,08,0.00
2007,09,03,00,09,0.00
2007,09,03,00,10,0.00
2007,09,03,00,11,0.00
2007,09,03,00,12,0.00
2007,09,03,00,13,0.00
2007,09,03,00,14,0.00
2007,09,03,00,15,0.00
2007,09,03,00,16,0.00
2007,09,03,00,17,0.00
2007,09,03,00,18,0.00
2007,09,03,00,19,0.00
2007,09,03,00,20,0.00
2007,09,03,00,21,0.00
2007,09,03,00,22,0.00
2007,09,03,00,23,0.00
2007,09,03,00,24,0.00
2007,09,03,00,25,0.00
2007,09,03,00,26,0.00
2007,09,03,00,27,0.00
2007,09,03,00,28,0.00
2007,09,03,00,29,0.00
2007,09,03,00,30,0.00
2007,09,03,00,31,0.00
2007,09,03,00,32,0.00
2007,09,03,00,33,0.00
2007,09,03,00,34,0.00
2007,09,03,00,35,0.00
2007,09,03,00,36,0.00
2007,09,03,00,37,0.00
2007,09,03,00,38,0.00
2007,09,03,00,39,0.00
2007,09,03,00,40,0.00
2007,09,03,00,41,0.00
2007,09,03,00,42,0.00
2007,09,03,00,43,0.00
2007,09,03,00,44,0.00
2007,09,03,00,45,0.00
2007,09,03,00,46,0.00
2007,09,03,00,47,0.00
2007,09,03,00,48,0.00
2007,09,03,00,49,0.00
2007,09,03,00,50,0.00
2007,09,03,00,51,0.00
2007,09,03,00,52,0.00
2007,09,03,00,53,0.00
2007,09,03,00,54,0.00
2007,09,03,00,55,0.00
2007,09,03,00,56,0.00
2007,09,03,00,57,0.00
2007,09,03,00,58,0.00
2007,09,03,00,59,0.00
2007,09,03,01,00,0.00
2007,09,03,01,01,0.00
2007,09,03,01,02,0.00
2007,09,03,01,03,0.00
2007,09,03,01,04,0.00
2007,09,03,01,05,0.00
2007,09,03,01,06,0.00
2007,09,03,01,07,0.00
2007,09,03,01,08,0.00
2007,09,03,01,09,0.00
2007,09,03,01,10,0.00
2007,09,03,01,11,0.00
2007,09,03,01,12,0.00
2007,09,03,01,13,0.00
2007,09,03,01,14,0.00
2007,09,03,01,15,0.00
2007,09,03,01,16,0.00
2007,09,03,01,17,0.00
2007,09,03,01,18,0.00
2007,09,03,01,19,0.00
2007,09,03,01,20,0.00
2007,09,03,01,21,0.00
2007,09,03,01,22,0.00
2007,09,03,01,23,0.00
2007,09,03,01,24,0.00
2007,09,03,01,25,0.00
2007,09,03,01,26,0.00
2007,09,03,01,27,0.00
2007,09,03,01,28,0.00
2007,09,03,01,29,0.00
2007,09,03,01,30,0.00
2007,09,03,01,31,0.00
2007,09,03,01,32,0.00
2007,09,03,01,33,0.00
2007,09,03,01,34,0.00
2007,09,03,01,35,0.00
2007,09,03,01,36,0.00
2007,09,03,01,37,0.00
2007,09,03,01,38,0.00
2007,09,03,01,39,0.00
2007,09,03,01,40,0.00
2007,09,03,01,41,0.00
2007,09,03,01,42,0.00
2007,09,03,01,43,0.00
2007,09,03,01,44,0.00
2007,09,03,01,45,0.00
2007,09,03,01,46,0.00
2007,09,03,01,47,0.00
2007,09,03,01,48,0.00
2007,09,03,01,49,0.00
2007,09,03,01,50,0.00
2007,09,03,01,51,0.00
2007,09,03,01,52,0.00
2007,09,03,01,53,0.00
2007,09,03,01,54,0.00
2007,09,03,01,55,0.00
2007,09,03,01,56,0.00
2007,09,03,01,57,0.00
2007,09,03,01,58,0.00
2007,09,03,01,59,0.00
2007,09,03,02,00,0.00
2007,09,03,02,01,0.00
2007,09,03,02,02,0.00
2007,09,03,02,03,0.00
2007,09,03,02,04,0.00
2007,09,03,02,05,0.00
2007,09,03,02,06,0.00
2007,09,03,02,07,0.00
2007,09,03,02,08,0.00
2007,09,03,02,09,0.00
2007,09,03,02,10,0.00
2007,09,03,02,11,0.00
2007,09,03,02,12,0.00
2007,09,03,02,13,0.00
2007,09,03,02,14,0.00
2007,09,03,02,15,0.00
2007,09,03,02,16,0.00
2007,09,03,02,17,0.00
2007,09,03,02,18,0.00
2007,09,03,02,19,0.00
2007,09,03,02,20,0.00
2007,09,03,02,21,0.00
2007,09,03,02,22,0.00
2007,09,03,02,23,0.00
2007,09,03,02,24,0.00
2007,09,03,02,25,0.00
2007,09,03,02,26,0.00
2007,09,03,02,27,0.00
2007,09,03,02,28,0.00
2007,09,03,02,29,0.00
2007,09,03,02,30,0.00
2007,09,03,02,31,0.00
2007,09,03,02,32,0.00
2007,09,03,02,33,0.00
2007,09,03,02,34,0.00
2007,09,03,02,35,0.00
2007,09,03,02,36,0.00
2007,09,03,02,37,0.00
2007,09,03,02,38,0.00
2007,09,03,02,39,0.00
2007,09,03,02,40,0.00
2007,09,03,02,41,0.00
2007,09,03,02,42,0.00
2007,09,03,02,43,0.00
2007,09,03,02,44,0.00
2007,09,03,02,45,0.00
2007,09,03,02,46,0.00
2007,09,03,02,47,0.00
2007,09,03,02,48,0.00
2007,09,03,02,49,0.00
2007,09,03,02,50,0.00
2007,09,03,02,51,0.00
2007,09,03,02,52,0.00
2007,09,03,02,53,0.00
2007,09,03,02,54,0.00
2007,09,03,02,55,0.00
2007,09,03,02,56,0.00
2007,09,03,02,57,0.00
2007,09,03,02,58,0.00
2007,09,03,02,59,0.00
2007,09,03,03,00,0.00
2007,09,03,03,01,0.00
2007,09,03,03,02,0.00
2007,09,03,03,03,0.00
2007,09,03,03,04,0.00
2007,09,03,03,05,0.00
2007,09,03,03,06,0.00
2007,09,03,03,07,0.00
2007,09,03,03,08,0.00
2007,09,03,03,09,0.00
2007,09,03,03,10,0.00
2007,09,03,03,11,0.00
2007,09,03,03,12,0.00
2007,09,03,03,13,0.00
2007,09,03,03,14,0.00
2007,09,03,03,15,0.00
2007,09,03,03,16,0.00
2007,09,03,03,17,0.00
2007,09,03,03,18,0.00
2007,09,03,03,19,0.00
2007,09,03,03,20,0.00
2007,09,03,03,21,0.00
2007,09,03,03,22,0.00
2007,09,03,03,23,0.00
2007,09,03,03,24,0.00
2007,09,03,03,25,0.00
2007,09,03,03,26,0.00
2007,09,03,03,27,0.00
2007,09,03,03,28,0.00
2007,09,03,03,29,0.00
2007,09,03,03,30,0.00
2007,09,03,03,31,0.00
2007,09,03,03,32,0.00
2007,09,03,03,33,0.00
2007,09,03,03,34,0.00
2007,09,03,03,35,0.00
2007,09,03,03,36,0.00
2007,09,03,03,37,0.00
2007,09,03,03,38,0.00
2007,09,03,03,39,0.00
2007,09,03,03,40,0.00
2007,09,03,03,41,0.00
2007,09,03,03,42,0.00
2007,09,03,03,43,0.00
2007,09,03,03,44,0.00
2007,09,03,03,45,0.00
2007,09,03,03,46,0.00
2007,09,03,03,47,0.00
2007,09,03,03,48,0.00
2007,09,03,03,49,0.00
2007,09,03,03,50,0.00
2007,09,03,03,51,0.00
2007,09,03,03,52,0.00
2007,09,03,03,53,0.00
2007,09,03,03,54,0.00
2007,09,03,03,55,0.00
2007,09,03,03,56,0.00
2007,09,03,03,57,0.00
2007,09,03,03,58,0.00
2007,09,03,03,59,0.00
2007,09,03,04,00,0.00
2007,09,03,04,01,0.00
2007,09,03,04,02,0.00
2007,09,03,04,03,0.00
2007,09,03,04,04,0.00
2007,09,03,04,05,0.00
2007,09,03,04,06,0.00
2007,09,03,04,07,0.00
2007,09,03,04,08,0.00
2007,09,03,04,09,0.00
2007,09,03,04,10,0.00
2007,09,03,04,11,0.00
2007,09,03,04,12,0.00
2007,09,03,04,13,0.00
2007,09,03,04,14,0.00
2007,09,03,04,15,0.00
2007,09,03,04,16,0.00
2007,09,03,04,17,0.00
2007,09,03,04,18,0.00
2007,09,03,04,19,0.00
2007,09,03,04,20,0.00
2007,09,03,04,21,0.00
2007,09,03,04,22,0.00
2007,09,03,04,23,0.00
2007,09,03,04,24,0.00
2007,09,03,04,25,0.00
2007,09,03,04,26,0.00
2007,09,03,04,27,0.00
2007,09,03,04,28,0.00
2007,09,03,04,29,0.00
2007,09,03,04,30,0.00
2007,09,03,04,31,0.00
2007,09,03,04,32,0.00
2007,09,03,04,33,0.00
2007,09,03,04,34,0.00
2007,09,03,04,35,0.00
2007,09,03,04,36,0.00
2007,09,03,04,37,0.00
2007,09,03,04,38,0.00
2007,09,03,04,39,0.00
2007,09,03,04,40,0.00
2007,09,03,04,41,0.00
2007,09,03,04,42,0.00
2007,09,03,04,43,0.00
2007,09,03,04,44,0.00
2007,09,03,04,45,0.00
2007,09,03,04,46,0.00
2007,09,03,04,47,0.00
2007,09,03,04,48,0.00
2007,09,03,04,49,0.00
2007,09,03,04,50,0.00
2007,09,03,04,51,0.00
2007,09,03,04,52,0.00
2007,09,03,04,53,0.00
2007,09,03,04,54,0.00
2007,09,03,04,55,0.00
2007,09,03,04,56,0.00
2007,09,03,04,57,0.00
2007,09,03,04,58,0.00
2007,09,03,04,59,0.00
2007,09,03,05,00,0.00
2007,09,03,05,01,0.00
2007,09,03,05,02,0.00
2007,09,03,05,03,0.00
2007,09,03,05,04,0.00
2007,09,03,05,05,0.00
2007,09,03,05,06,0.00
2007,09,03,05,07,0.00
2007,09,03,05,08,0.00
2007,09,03,05,09,0.00
2007,09,03,05,10,0.00
2007,09,03,05,11,0.00
2007,09,03,05,12,0.00
2007,09,03,05,13,0.00
2007,09,03,05,14,0.00
2007,09,03,05,15,0.00
2007,09,03,05,16,0.00
2007,09,03,05,17,0.00
2007,09,03,05,18,0.00
2007,09,03,05,19,0.00
2007,09,03,05,20,0.00
2007,09,03,05,21,0.00
2007,09,03,05,22,0.00
2007,09,03,05,23,0.00
2007,09,03,05,24,0.00
2007,09,03,05,25,0.00
2007,09,03,05,26,0.00
2007,09,03,05,27,0.00
2007,09,03,05,28,0.00
2007,09,03,05,29,0.00
2007,09,03,05,30,0.00
2007,09,03,05,31,0.00
2007,09,03,05,32,0.00
2007,09,03,05,33,0.00
2007,09,03,05,34,0.00
2007,09,03,05,35,0.00
2007,09,03,05,36,0.00
2007,09,03,05,37,0.00
2007,09,03,05,38,0.00
2007,09,03,05,39,0.00
2007,09,03,05,40,0.00
2007,09,03,05,41,0.00
2007,09,03,05,42,0.00
2007,09,03,05,43,0.00
2007,09,03,05,44,0.00
2007,09,03,05,45,0.00
2007,09,03,05,46,0.00
2007,09,03,05,47,0.00
2007,09,03,05,48,0.00
2007,09,03,05,49,0.00
2007,09,03,05,50,0.00
2007,09,03,05,51,0.00
2007,09,03,05,52,0.00
2007,09,03,05,53,0.00
2007,09,03,05,54,0.00
2007,09,03,05,55,0.00
2007,09,03,05,56,0.00
2007,09,03,05,57,0.00
2007,09,03,05,58,0.00
2007,09,03,05,59,0.00
2007,09,03,06,00,0.00
2007,09,03,06,01,0.00
2007,09,03,06,02,0.00
2007,09,03,06,03,0.00
2007,09,03,06,04,0.00
2007,09,03,06,05,0.00
2007,09,03,06,06,0.00
2007,09,03,06,07,0.00
2007,09,03,06,08,0.00
2007,09,03,06,09,0.00
2007,09,03,06,10,0.00
2007,09,03,06,11,0.00
2007,09,03,06,12,0.00
2007,09,03,06,13,0.00
2007,09,03,06,14,0.00
2007,09,03,06,15,0.00
2007,09,03,06,16,0.00
2007,09,03,06,17,0.00
2007,09,03,06,18,0.00
2007,09,03,06,19,0.00
2007,09,03,06,20,0.00
2007,09,03,06,21,0.00
2007,09,03,06,22,0.00
2007,09,03,06,23,0.00
2007,09,03,06,24,0.00
2007,09,03,06,25,0.00
2007,09,03,06,26,0.00
2007,09,03,06,27,0.00
2007,09,03,06,28,0.00
2007,09,03,06,29,0.00
2007,09,03,06,30,0.00
2007,09,03,06,31,0.00
2007,09,03,06,32,0.00
2007,09,03,06,33,0.00
2007,09,03,06,34,0.00
2007,09,03,06,35,0.00
2007,09,03,06,36,0.00
2007,09,03,06,37,0.00
2007,09,03,06,38,0.00
2007,09,03,06,39,0.00
2007,09,03,06,40,0.00
2007,09,03,06,41,0.00
2007,09,03,06,42,0.00
2007,09,03,06,43,0.00
2007,09,03,06,44,0.00
2007,09,03,06,45,0.00
2007,09,03,06,46,0.00
2007,09,03,06,47,5.00
2007,09,03,06,48,5.00
2007,09,03,06,49,5.70
2007,09,03,06,50,7.00
2007,09,03,06,51,7.00
2007,09,03,06,52,7.00
2007,09,03,06,53,7.20
2007,09,03,06,54,9.00
2007,09,03,06,55,9.00
2007,09,03,06,56,10.20
2007,09,03,06,57,11.00
2007,09,03,06,58,11.00
2007,09,03,06,59,11.90
2007,09,03,07,00,12.60
2007,09,03,07,01,14.00
2007,09,03,07,02,15.10
2007,09,03,07,03,16.00
2007,09,03,07,04,17.80
2007,09,03,07,05,18.20
2007,09,03,07,06,19.00
2007,09,03,07,07,19.90
2007,09,03,07,08,21.00
2007,09,03,07,09,21.00
2007,09,03,07,10,22.90
2007,09,03,07,11,22.70
2007,09,03,07,12,21.00
2007,09,03,07,13,21.00
2007,09,03,07,14,21.00
2007,09,03,07,15,21.00
2007,09,03,07,16,23.00
2007,09,03,07,17,25.00
2007,09,03,07,18,25.30
2007,09,03,07,19,27.10
2007,09,03,07,20,28.00
2007,09,03,07,21,28.00
2007,09,03,07,22,31.80
2007,09,03,07,23,32.20
2007,09,03,07,24,33.00
2007,09,03,07,25,33.00
2007,09,03,07,26,33.00
2007,09,03,07,27,33.00
2007,09,03,07,28,35.00
2007,09,03,07,29,35.50
2007,09,03,07,30,37.70
2007,09,03,07,31,39.00
2007,09,03,07,32,39.70
2007,09,03,07,33,40.00
2007,09,03,07,34,42.00
2007,09,03,07,35,41.50
2007,09,03,07,36,40.80
2007,09,03,07,37,42.00
2007,09,03,07,38,42.00
2007,09,03,07,39,42.00
2007,09,03,07,40,42.40
2007,09,03,07,41,46.90
2007,09,03,07,42,49.90
2007,09,03,07,43,52.20
2007,09,03,07,44,53.70
2007,09,03,07,45,53.10
2007,09,03,07,46,51.00
2007,09,03,07,47,50.40
2007,09,03,07,48,49.00
2007,09,03,07,49,47.90
2007,09,03,07,50,47.00
2007,09,03,07,51,47.00
2007,09,03,07,52,47.00
2007,09,03,07,53,47.00
2007,09,03,07,54,47.00
2007,09,03,07,55,48.20
2007,09,03,07,56,49.00
2007,09,03,07,57,51.00
2007,09,03,07,58,53.00
2007,09,03,07,59,53.00
2007,09,03,08,00,54.50
2007,09,03,08,01,57.30
2007,09,03,08,02,58.00
2007,09,03,08,03,56.20
2007,09,03,08,04,55.50
2007,09,03,08,05,53.60
2007,09,03,08,06,52.00
2007,09,03,08,07,49.60
2007,09,03,08,08,49.00
2007,09,03,08,09,46.90
2007,09,03,08,10,46.00
2007,09,03,08,11,45.20
2007,09,03,08,12,44.00
2007,09,03,08,13,44.00
2007,09,03,08,14,45.80
2007,09,03,08,15,47.20
2007,09,03,08,16,50.10
2007,09,03,08,17,54.20
2007,09,03,08,18,57.20
2007,09,03,08,19,58.00
2007,09,03,08,20,61.20
2007,09,03,08,21,63.00
2007,09,03,08,22,63.00
2007,09,03,08,23,63.00
2007,09,03,08,24,63.00
2007,09,03,08,25,63.00
2007,09,03,08,26,63.00
2007,09,03,08,27,63.30
2007,09,03,08,28,65.60
2007,09,03,08,29,67.00
2007,09,03,08,30,68.30
2007,09,03,08,31,69.80
2007,09,03,08,32,70.00
2007,09,03,08,33,70.00
2007,09,03,08,34,70.00
2007,09,03,08,35,70.00
2007,09,03,08,36,69.40
2007,09,03,08,37,69.00
2007,09,03,08,38,69.10
2007,09,03,08,39,70.00
2007,09,03,08,40,70.00
2007,09,03,08,41,70.00
2007,09,03,08,42,74.20
2007,09,03,08,43,78.70
2007,09,03,08,44,83.10
2007,09,03,08,45,84.50
2007,09,03,08,46,86.00
2007,09,03,08,47,88.00
2007,09,03,08,48,90.00
2007,09,03,08,49,90.80
2007,09,03,08,50,93.10
2007,09,03,08,51,95.40
2007,09,03,08,52,97.00
2007,09,03,08,53,97.00
2007,09,03,08,54,100.60
2007,09,03,08,55,102.00
2007,09,03,08,56,104.00
2007,09,03,08,57,104.00
2007,09,03,08,58,104.00
2007,09,03,08,59,104.00
2007,09,03,09,00,104.70
2007,09,03,09,01,105.00
2007,09,03,09,02,105.00
2007,09,03,09,03,105.00
2007,09,03,09,04,105.00
2007,09,03,09,05,104.40
2007,09,03,09,06,104.00
2007,09,03,09,07,102.20
2007,09,03,09,08,102.00
2007,09,03,09,09,102.00
2007,09,03,09,10,102.00
2007,09,03,09,11,100.70
2007,09,03,09,12,98.40
2007,09,03,09,13,97.10
2007,09,03,09,14,95.00
2007,09,03,09,15,95.60
2007,09,03,09,16,97.50
2007,09,03,09,17,99.20
2007,09,03,09,18,101.50
2007,09,03,09,19,102.10
2007,09,03,09,20,104.00
2007,09,03,09,21,103.30
2007,09,03,09,22,99.40
2007,09,03,09,23,92.20
2007,09,03,09,24,85.50
2007,09,03,09,25,80.80
2007,09,03,09,26,78.60
2007,09,03,09,27,77.00
2007,09,03,09,28,76.50
2007,09,03,09,29,76.00
2007,09,03,09,30,74.40
2007,09,03,09,31,74.00
2007,09,03,09,32,74.00
2007,09,03,09,33,74.00
2007,09,03,09,34,75.00
2007,09,03,09,35,78.20
2007,09,03,09,36,82.20
2007,09,03,09,37,86.20
2007,09,03,09,38,88.50
2007,09,03,09,39,90.40
2007,09,03,09,40,91.00
2007,09,03,09,41,91.00
2007,09,03,09,42,91.00
2007,09,03,09,43,91.00
2007,09,03,09,44,91.60
2007,09,03,09,45,93.80
2007,09,03,09,46,95.00
2007,09,03,09,47,95.00
2007,09,03,09,48,95.00
2007,09,03,09,49,95.00
2007,09,03,09,50,95.00
2007,09,03,09,51,95.90
2007,09,03,09,52,97.60
2007,09,03,09,53,99.50
2007,09,03,09,54,100.00
2007,09,03,09,55,101.30
2007,09,03,09,56,107.70
2007,09,03,09,57,109.90
2007,09,03,09,58,111.00
2007,09,03,09,59,112.60
2007,09,03,10,00,114.10
2007,09,03,10,01,118.60
2007,09,03,10,02,121.70
2007,09,03,10,03,125.10
2007,09,03,10,04,127.00
2007,09,03,10,05,129.40
2007,09,03,10,06,133.90
2007,09,03,10,07,135.40
2007,09,03,10,08,138.40
2007,09,03,10,09,141.50
2007,09,03,10,10,142.00
2007,09,03,10,11,146.70
2007,09,03,10,12,149.10
2007,09,03,10,13,151.40
2007,09,03,10,14,152.20
2007,09,03,10,15,149.90
2007,09,03,10,16,146.90
2007,09,03,10,17,142.40
2007,09,03,10,18,141.10
2007,09,03,10,19,141.30
2007,09,03,10,20,142.00
2007,09,03,10,21,143.10
2007,09,03,10,22,144.00
2007,09,03,10,23,145.80
2007,09,03,10,24,146.30
2007,09,03,10,25,148.30
2007,09,03,10,26,149.80
2007,09,03,10,27,149.80
2007,09,03,10,28,148.30
2007,09,03,10,29,148.00
2007,09,03,10,30,146.00
2007,09,03,10,31,146.00
2007,09,03,10,32,146.00
2007,09,03,10,33,146.00
2007,09,03,10,34,146.00
2007,09,03,10,35,146.40
2007,09,03,10,36,155.60
2007,09,03,10,37,159.30
2007,09,03,10,38,163.40
2007,09,03,10,39,167.70
2007,09,03,10,40,171.20
2007,09,03,10,41,172.20
2007,09,03,10,42,176.00
2007,09,03,10,43,176.00
2007,09,03,10,44,176.00
2007,09,03,10,45,174.70
2007,09,03,10,46,175.70
2007,09,03,10,47,176.20
2007,09,03,10,48,178.00
2007,09,03,10,49,179.10
2007,09,03,10,50,183.60
2007,09,03,10,51,190.70
2007,09,03,10,52,198.60
2007,09,03,10,53,214.50
2007,09,03,10,54,227.00
2007,09,03,10,55,227.70
2007,09,03,10,56,231.60
2007,09,03,10,57,229.20
2007,09,03,10,58,225.30
2007,09,03,10,59,227.30
2007,09,03,11,00,229.70
2007,09,03,11,01,228.20
2007,09,03,11,02,228.60
2007,09,03,11,03,234.40
2007,09,03,11,04,238.70
2007,09,03,11,05,235.90
2007,09,03,11,06,234.00
2007,09,03,11,07,234.00
2007,09,03,11,08,235.10
2007,09,03,11,09,241.90
2007,09,03,11,10,244.00
2007,09,03,11,11,260.60
2007,09,03,11,12,255.20
2007,09,03,11,13,259.10
2007,09,03,11,14,258.00
2007,09,03,11,15,255.60
2007,09,03,11,16,243.40
2007,09,03,11,17,239.00
2007,09,03,11,18,238.10
2007,09,03,11,19,236.00
2007,09,03,11,20,234.80
2007,09,03,11,21,232.40
2007,09,03,11,22,230.10
2007,09,03,11,23,228.70
2007,09,03,11,24,226.30
2007,09,03,11,25,224.00
2007,09,03,11,26,221.60
2007,09,03,11,27,218.50
2007,09,03,11,28,216.00
2007,09,03,11,29,214.00
2007,09,03,11,30,214.70
2007,09,03,11,31,218.10
2007,09,03,11,32,220.70
2007,09,03,11,33,222.70
2007,09,03,11,34,223.00
2007,09,03,11,35,223.50
2007,09,03,11,36,225.80
2007,09,03,11,37,228.10
2007,09,03,11,38,229.70
2007,09,03,11,39,231.60
2007,09,03,11,40,234.00
2007,09,03,11,41,234.00
2007,09,03,11,42,233.20
2007,09,03,11,43,230.90
2007,09,03,11,44,229.30
2007,09,03,11,45,229.00
2007,09,03,11,46,229.00
2007,09,03,11,47,229.30
2007,09,03,11,48,230.00
2007,09,03,11,49,230.00
2007,09,03,11,50,229.30
2007,09,03,11,51,229.00
2007,09,03,11,52,226.70
2007,09,03,11,53,224.40
2007,09,03,11,54,222.10
2007,09,03,11,55,221.00
2007,09,03,11,56,221.00
2007,09,03,11,57,221.00
2007,09,03,11,58,220.00
2007,09,03,11,59,220.40
2007,09,03,12,00,221.90
2007,09,03,12,01,223.00
2007,09,03,12,02,226.10
2007,09,03,12,03,228.90
2007,09,03,12,04,230.00
2007,09,03,12,05,230.00
2007,09,03,12,06,228.40
2007,09,03,12,07,225.60
2007,09,03,12,08,223.40
2007,09,03,12,09,223.00
2007,09,03,12,10,223.80
2007,09,03,12,11,228.10
2007,09,03,12,12,233.50
2007,09,03,12,13,239.70
2007,09,03,12,14,242.70
2007,09,03,12,15,243.10
2007,09,03,12,16,246.50
2007,09,03,12,17,248.00
2007,09,03,12,18,245.70
2007,09,03,12,19,243.40
2007,09,03,12,20,237.90
2007,09,03,12,21,229.20
2007,09,03,12,22,222.20
2007,09,03,12,23,219.20
2007,09,03,12,24,216.80
2007,09,03,12,25,216.00
2007,09,03,12,26,216.00
2007,09,03,12,27,216.60
2007,09,03,12,28,220.80
2007,09,03,12,29,223.90
2007,09,03,12,30,225.00
2007,09,03,12,31,223.50
2007,09,03,12,32,223.00
2007,09,03,12,33,223.30
2007,09,03,12,34,225.60
2007,09,03,12,35,227.90
2007,09,03,12,36,229.60
2007,09,03,12,37,229.30
2007,09,03,12,38,221.40
2007,09,03,12,39,217.40
2007,09,03,12,40,213.60
2007,09,03,12,41,211.00
2007,09,03,12,42,207.70
2007,09,03,12,43,204.60
2007,09,03,12,44,199.30
2007,09,03,12,45,196.90
2007,09,03,12,46,185.00
2007,09,03,12,47,175.00
2007,09,03,12,48,165.30
2007,09,03,12,49,156.80
2007,09,03,12,50,145.50
2007,09,03,12,51,139.70
2007,09,03,12,52,133.90
2007,09,03,12,53,131.00
2007,09,03,12,54,128.60
2007,09,03,12,55,127.20
2007,09,03,12,56,125.40
2007,09,03,12,57,127.30
2007,09,03,12,58,130.50
2007,09,03,12,59,136.60
2007,09,03,13,00,145.20
2007,09,03,13,01,154.40
2007,09,03,13,02,163.90
2007,09,03,13,03,172.30
2007,09,03,13,04,176.00
2007,09,03,13,05,174.80
2007,09,03,13,06,167.50
2007,09,03,13,07,157.80
2007,09,03,13,08,144.60
2007,09,03,13,09,137.00
2007,09,03,13,10,137.00
2007,09,03,13,11,128.90
2007,09,03,13,12,121.60
2007,09,03,13,13,121.00
2007,09,03,13,14,126.10
2007,09,03,13,15,135.20
2007,09,03,13,16,148.20
2007,09,03,13,17,162.30
2007,09,03,13,18,175.70
2007,09,03,13,19,184.60
2007,09,03,13,20,188.30
2007,09,03,13,21,190.70
2007,09,03,13,22,192.00
2007,09,03,13,23,190.70
2007,09,03,13,24,186.10
2007,09,03,13,25,174.50
2007,09,03,13,26,160.90
2007,09,03,13,27,150.40
2007,09,03,13,28,146.00
2007,09,03,13,29,144.70
2007,09,03,13,30,144.00
2007,09,03,13,31,160.10
2007,09,03,13,32,171.20
2007,09,03,13,33,181.30
2007,09,03,13,34,187.10
2007,09,03,13,35,186.00
2007,09,03,13,36,178.20
2007,09,03,13,37,162.20
2007,09,03,13,38,153.90
2007,09,03,13,39,150.20
2007,09,03,13,40,151.30
2007,09,03,13,41,156.70
2007,09,03,13,42,162.50
2007,09,03,13,43,164.80
2007,09,03,13,44,160.80
2007,09,03,13,45,150.40
2007,09,03,13,46,138.40
2007,09,03,13,47,126.30
2007,09,03,13,48,118.60
2007,09,03,13,49,116.40
2007,09,03,13,50,119.40
2007,09,03,13,51,124.60
2007,09,03,13,52,129.90
2007,09,03,13,53,135.60
2007,09,03,13,54,142.90
2007,09,03,13,55,151.80
2007,09,03,13,56,157.70
2007,09,03,13,57,162.00
2007,09,03,13,58,166.20
2007,09,03,13,59,169.00
2007,09,03,14,00,170.60
2007,09,03,14,01,168.70
2007,09,03,14,02,166.30
2007,09,03,14,03,164.00
2007,09,03,14,04,162.40
2007,09,03,14,05,162.00
2007,09,03,14,06,165.10
2007,09,03,14,07,169.60
2007,09,03,14,08,174.20
2007,09,03,14,09,182.00
2007,09,03,14,10,193.80
2007,09,03,14,11,213.30
2007,09,03,14,12,221.40
2007,09,03,14,13,271.70
2007,09,03,14,14,291.10
2007,09,03,14,15,292.30
2007,09,03,14,16,276.70
2007,09,03,14,17,256.60
2007,09,03,14,18,245.80
2007,09,03,14,19,244.50
2007,09,03,14,20,247.70
2007,09,03,14,21,252.60
2007,09,03,14,22,261.50
2007,09,03,14,23,269.60
2007,09,03,14,24,280.70
2007,09,03,14,25,290.00
2007,09,03,14,26,290.00
2007,09,03,14,27,298.10
2007,09,03,14,28,298.90
2007,09,03,14,29,291.40
2007,09,03,14,30,280.10
2007,09,03,14,31,270.20
2007,09,03,14,32,264.60
2007,09,03,14,33,265.60
2007,09,03,14,34,273.60
2007,09,03,14,35,284.10
2007,09,03,14,36,289.70
2007,09,03,14,37,288.00
2007,09,03,14,38,288.00
2007,09,03,14,39,274.70
2007,09,03,14,40,264.70
2007,09,03,14,41,262.10
2007,09,03,14,42,262.00
2007,09,03,14,43,263.90
2007,09,03,14,44,270.50
2007,09,03,14,45,274.40
2007,09,03,14,46,281.20
2007,09,03,14,47,295.40
2007,09,03,14,48,319.80
2007,09,03,14,49,346.70
2007,09,03,14,50,377.30
2007,09,03,14,51,410.70
2007,09,03,14,52,438.80
2007,09,03,14,53,470.20
2007,09,03,14,54,495.00
2007,09,03,14,55,534.10
2007,09,03,14,56,586.00
2007,09,03,14,57,608.00
2007,09,03,14,58,608.00
2007,09,03,14,59,608.00
2007,09,03,15,00,559.10
2007,09,03,15,01,407.30
2007,09,03,15,02,372.80
2007,09,03,15,03,348.90
2007,09,03,15,04,332.40
2007,09,03,15,05,316.90
2007,09,03,15,06,304.60
2007,09,03,15,07,290.80
2007,09,03,15,08,281.50
2007,09,03,15,09,276.80
2007,09,03,15,10,272.40
2007,09,03,15,11,272.90
2007,09,03,15,12,279.80
2007,09,03,15,13,287.00
2007,09,03,15,14,292.30
2007,09,03,15,15,294.80
2007,09,03,15,16,294.10
2007,09,03,15,17,291.20
2007,09,03,15,18,287.00
2007,09,03,15,19,287.50
2007,09,03,15,20,286.10
2007,09,03,15,21,274.90
2007,09,03,15,22,272.00
2007,09,03,15,23,229.80
2007,09,03,15,24,210.20
2007,09,03,15,25,200.60
2007,09,03,15,26,200.90
2007,09,03,15,27,205.20
2007,09,03,15,28,204.00
2007,09,03,15,29,201.40
2007,09,03,15,30,199.00
2007,09,03,15,31,200.60
2007,09,03,15,32,207.40
2007,09,03,15,33,223.60
2007,09,03,15,34,246.00
2007,09,03,15,35,250.00
2007,09,03,15,36,261.90
2007,09,03,15,37,257.40
2007,09,03,15,38,255.60
2007,09,03,15,39,257.50
2007,09,03,15,40,263.40
2007,09,03,15,41,249.50
2007,09,03,15,42,237.10
2007,09,03,15,43,234.00
2007,09,03,15,44,231.30
2007,09,03,15,45,216.40
2007,09,03,15,46,196.30
2007,09,03,15,47,187.10
2007,09,03,15,48,171.00
2007,09,03,15,49,150.70
2007,09,03,15,50,140.30
2007,09,03,15,51,140.80
2007,09,03,15,52,141.90
2007,09,03,15,53,141.00
2007,09,03,15,54,143.40
2007,09,03,15,55,148.90
2007,09,03,15,56,151.00
2007,09,03,15,57,152.80
2007,09,03,15,58,158.80
2007,09,03,15,59,163.00
2007,09,03,16,00,159.20
2007,09,03,16,01,148.10
2007,09,03,16,02,136.10
2007,09,03,16,03,121.20
2007,09,03,16,04,109.10
2007,09,03,16,05,101.40
2007,09,03,16,06,100.90
2007,09,03,16,07,107.70
2007,09,03,16,08,118.90
2007,09,03,16,09,137.10
2007,09,03,16,10,158.60
2007,09,03,16,11,176.10
2007,09,03,16,12,184.10
2007,09,03,16,13,183.70
2007,09,03,16,14,179.60
2007,09,03,16,15,173.70
2007,09,03,16,16,159.40
2007,09,03,16,17,140.80
2007,09,03,16,18,132.00
2007,09,03,16,19,119.00
2007,09,03,16,20,109.60
2007,09,03,16,21,104.70
2007,09,03,16,22,101.60
2007,09,03,16,23,101.50
2007,09,03,16,24,108.10
2007,09,03,16,25,119.80
2007,09,03,16,26,133.10
2007,09,03,16,27,142.20
2007,09,03,16,28,143.20
2007,09,03,16,29,138.10
2007,09,03,16,30,128.80
2007,09,03,16,31,125.00
2007,09,03,16,32,116.90
2007,09,03,16,33,112.10
2007,09,03,16,34,107.00
2007,09,03,16,35,109.90
2007,09,03,16,36,119.50
2007,09,03,16,37,123.00
2007,09,03,16,38,122.80
2007,09,03,16,39,117.60
2007,09,03,16,40,113.70
2007,09,03,16,41,110.20
2007,09,03,16,42,105.80
2007,09,03,16,43,102.60
2007,09,03,16,44,102.00
2007,09,03,16,45,102.00
2007,09,03,16,46,102.60
2007,09,03,16,47,101.20
2007,09,03,16,48,94.80
2007,09,03,16,49,90.70
2007,09,03,16,50,89.90
2007,09,03,16,51,86.90
2007,09,03,16,52,82.30
2007,09,03,16,53,81.00
2007,09,03,16,54,82.40
2007,09,03,16,55,83.00
2007,09,03,16,56,83.10
2007,09,03,16,57,84.80
2007,09,03,16,58,88.70
2007,09,03,16,59,90.50
2007,09,03,17,00,91.00
2007,09,03,17,01,90.20
2007,09,03,17,02,85.70
2007,09,03,17,03,79.90
2007,09,03,17,04,74.40
2007,09,03,17,05,72.00
2007,09,03,17,06,74.70
2007,09,03,17,07,78.50
2007,09,03,17,08,78.70
2007,09,03,17,09,74.90
2007,09,03,17,10,69.10
2007,09,03,17,11,62.10
2007,09,03,17,12,55.20
2007,09,03,17,13,49.80
2007,09,03,17,14,46.90
2007,09,03,17,15,46.00
2007,09,03,17,16,45.20
2007,09,03,17,17,44.00
2007,09,03,17,18,44.00